Wind_Speed
28 29 29 29 30 31 31 32 33 33 33 34 34 35 36 37 38 39 40 41 42 41 42 42 43 43 43 43 43 43 43 44 45 44 44 43 43 43 43 43 42 42 42 42
28 29 29 29 30 31 32 32 32 32 32 33 34 35 35 36 37 38 39 40 41 42 43 42 43 44 44 44 44 44 44 44 45 44 45 45 45 44 44 44 44 44 44 43
29 28 29 30 30 31 31 32 32 32 32 34 35 35 34 35 36 37 38 39 41 42 42 42 43 44 45 44 45 44 44 45 45 44 45 46 47 46 46 46 46 46 46 45
29 30 30 30 30 31 31 31 32 32 33 33 34 35 33 34 34 35 35 36 38 39 40 41 42 43 43 44 44 44 45 45 46 46 46 46 47 47 47 47 47 48 47 47
30 30 31 31 30 31 31 31 32 33 33 34 34 35 34 33 33 33 33 34 35 37 38 40 41 41 41 42 43 43 45 46 46 47 47 47 47 47 47 47 48 48 49 48
29 30 31 31 31 31 31 32 32 33 34 35 34 35 34 33 32 32 32 33 34 35 36 37 39 40 40 41 41 42 43 44 45 46 46 46 47 47 48 48 48 49 49 49
29 30 31 31 31 31 31 31 32 33 34 35 34 35 35 33 32 32 32 33 33 34 35 36 37 38 39 40 41 41 41 42 43 44 45 46 46 47 48 48 49 49 50 50
28 29 30 31 31 31 31 31 31 32 33 33 33 34 33 33 32 31 32 32 33 33 34 35 36 38 39 40 41 41 41 41 43 44 45 46 47 47 47 48 48 49 49 50
27 28 29 30 31 31 31 30 30 32 33 33 33 33 32 31 31 31 31 32 32 32 33 34 35 37 38 39 41 41 41 41 42 43 43 45 46 46 46 46 46 46 47 48
27 28 28 28 29 30 30 30 31 32 32 33 33 32 31 30 30 30 31 31 32 32 33 34 34 35 36 37 39 40 40 41 41 42 43 44 45 45 45 45 46 46 46 46
28 28 28 28 28 29 30 30 31 32 33 33 34 33 31 30 29 30 30 31 32 33 33 34 34 35 36 37 38 39 39 40 41 41 42 43 43 44 46 46 46 46 47 47
26 27 27 28 28 29 30 30 31 31 32 33 33 32 30 30 30 30 31 31 31 32 33 33 33 34 36 37 38 39 39 40 41 41 42 42 43 43 44 46 47 47 47 48
25 26 27 27 28 28 28 29 30 31 32 32 32 31 30 30 30 30 31 31 31 32 32 32 33 34 35 36 37 38 39 40 41 41 41 42 42 43 43 44 46 46 47 48
24 25 25 25 26 26 27 28 29 31 32 32 31 30 30 31 31 32 32 31 32 32 33 33 34 34 34 35 36 37 38 39 40 41 41 42 43 43 43 44 45 46 47 48
24 24 24 25 25 25 25 26 28 30 30 31 30 30 29 31 32 32 32 32 32 33 33 34 34 34 34 34 35 36 36 37 38 39 40 41 42 42 43 44 44 45 46 47
24 24 24 25 26 26 26 26 27 28 29 29 29 29 30 31 32 32 32 32 32 33 33 33 33 34 34 34 34 35 35 36 36 37 38 39 40 40 41 42 43 44 45 46
24 24 25 25 25 27 27 26 26 27 27 28 29 28 30 31 31 32 32 32 32 32 32 33 33 33 34 34 34 34 35 36 36 37 37 38 39 40 40 41 42 43 44 45
22 23 24 24 25 27 25 25 26 26 27 28 28 28 29 30 31 31 31 31 31 32 32 32 33 34 34 34 34 34 35 36 37 37 38 38 39 39 40 40 41 42 43 44
22 22 23 24 25 26 25 24 25 25 26 26 27 28 28 29 29 30 31 31 31 31 31 32 32 33 34 34 34 35 35 36 36 37 37 37 38 38 39 39 40 40 40 41
22 23 24 25 25 26 25 24 24 25 25 25 26 27 28 28 29 28 30 30 30 31 31 31 31 32 33 33 33 34 34 34 34 34 35 35 36 36 37 39 39 39 40 40
22 23 24 25 26 26 25 24 24 25 25 25 25 26 27 27 27 28 28 29 30 30 31 30 31 31 32 32 32 32 33 33 33 33 33 34 35 35 36 37 37 38 38 38
22 23 24 25 26 25 24 24 24 25 25 26 25 25 26 27 27 27 27 28 29 29 30 30 30 30 30 31 31 31 32 32 32 32 32 33 33 34 35 35 36 36 37 36
22 22 23 24 24 24 24 25 25 25 26 26 26 26 26 26 26 27 27 28 28 28 28 29 29 29 30 30 31 31 32 32 32 32 32 31 32 33 33 33 34 34 35 35
22 23 23 23 23 23 24 26 26 26 26 26 26 26 26 26 26 27 27 28 28 28 28 28 29 29 30 30 30 31 32 31 31 30 30 31 31 31 32 32 33 33 33 33
22 23 23 22 22 24 25 26 26 27 26 26 26 26 27 27 27 27 27 27 27 27 28 28 29 29 29 29 29 29 30 29 29 30 30 30 30 31 31 31 31 32 31 31
23 23 23 22 23 24 25 26 26 25 25 26 26 26 26 27 27 26 26 26 27 27 27 27 27 27 27 28 28 28 28 28 28 29 29 29 29 29 30 30 30 30 30 29
Wind_Direction
245 246 247 248 249 250 251 252 254 255 253 252 253 253 253 253 253 252 251 250 249 247 247 248 248 249 250 251 253 255 256 256 256 257 257 258 258 257 257 257 257 257 258 258
247 248 249 249 249 251 251 253 254 256 255 254 254 254 255 255 255 255 253 252 250 250 249 248 249 250 250 251 253 256 257 257 257 257 257 258 257 257 258 258 257 257 257 257
248 249 250 249 250 251 252 254 255 257 257 257 257 256 256 256 256 256 256 254 252 251 250 249 250 251 252 252 253 255 256 257 257 258 258 259 258 257 257 257 258 257 257 257
248 249 250 249 250 250 252 255 256 257 257 258 258 259 256 257 257 257 256 255 254 252 250 249 250 251 253 253 254 255 255 256 257 258 258 259 258 258 257 257 258 258 257 257
248 249 249 248 249 251 253 255 257 258 258 258 258 261 259 258 258 257 256 255 254 253 252 251 249 251 252 254 255 255 255 256 258 259 258 258 258 257 257 257 257 257 258 258
250 250 250 250 251 253 253 256 257 258 258 258 258 260 260 258 259 257 256 256 255 255 254 253 251 251 252 253 255 256 257 258 259 259 258 258 258 258 257 257 258 257 258 259
251 251 251 251 252 253 254 256 258 259 259 260 259 259 259 259 259 259 259 258 257 257 256 255 254 254 254 255 256 258 258 258 258 259 259 259 258 258 258 258 258 259 259 259
254 253 253 253 254 255 256 256 258 261 262 262 260 259 260 259 259 259 259 259 259 258 257 257 257 257 257 258 258 259 258 258 258 259 259 259 259 259 258 259 259 260 261 261
257 257 255 255 254 255 256 257 259 261 262 262 261 261 260 260 260 260 260 260 260 259 259 259 259 260 260 260 260 261 260 259 260 261 260 259 258 258 258 259 259 260 261 261
257 258 257 256 254 255 257 259 259 260 261 262 262 262 262 262 261 262 262 261 261 261 261 261 262 262 262 262 261 261 261 260 260 261 261 260 259 258 258 258 259 259 260 261
258 258 256 256 255 256 257 259 259 260 260 261 262 262 262 263 262 263 264 263 263 262 263 263 262 263 263 263 263 263 261 260 261 261 261 260 260 260 258 258 258 259 260 261
258 257 256 256 257 258 259 260 260 260 262 261 262 263 263 264 264 264 265 265 264 264 264 266 266 266 265 264 265 265 263 262 262 263 263 262 261 261 260 259 260 260 261 262
259 258 259 259 257 257 260 259 260 260 261 262 262 264 264 264 265 265 266 265 265 265 265 266 268 268 267 265 265 266 265 264 264 265 265 264 263 263 261 261 261 262 263 264
258 259 260 261 261 261 261 260 259 260 261 263 264 264 264 265 265 266 267 266 266 266 266 267 268 269 267 266 266 266 267 266 266 266 266 266 265 265 265 264 263 263 264 265
259 260 260 260 260 262 262 259 258 260 262 264 264 263 263 264 265 266 267 267 267 267 267 268 269 268 267 267 267 267 268 267 267 267 267 267 267 267 267 267 267 267 266 267
260 261 261 261 262 263 262 261 260 262 263 264 265 263 263 263 264 266 267 267 267 267 268 268 269 268 268 268 268 268 268 268 268 269 269 269 268 269 269 269 270 270 270 271
263 263 264 263 263 263 264 263 264 265 266 266 266 265 265 265 266 266 266 267 267 268 268 268 269 269 268 268 268 268 269 269 269 269 269 269 269 269 270 270 270 271 272 272
264 264 264 264 263 264 267 265 266 267 268 267 266 267 267 268 268 268 268 268 269 270 269 269 269 269 269 269 269 269 270 270 270 270 270 269 269 269 270 272 272 272 273 274
264 265 266 267 267 266 266 268 269 269 267 268 269 268 268 269 270 270 269 269 270 270 270 271 270 270 269 269 269 270 271 272 272 271 270 270 270 270 271 272 273 273 274 275
264 266 267 269 270 270 271 271 270 269 268 268 270 270 271 272 271 270 270 269 269 270 271 272 271 270 270 270 270 271 272 273 273 272 271 272 272 272 273 274 275 275 275 275
266 267 269 270 271 272 273 271 270 270 272 272 273 273 274 274 273 271 270 271 271 271 272 272 272 271 271 271 272 272 273 274 273 273 272 273 274 275 276 277 277 277 277 276
269 270 271 272 272 275 273 272 271 272 272 275 276 276 276 274 274 274 273 273 273 273 272 272 272 272 272 272 272 273 273 274 273 274 275 275 275 277 278 278 279 279 279 278
270 273 274 272 272 273 273 272 271 272 275 276 276 277 277 276 275 275 275 275 274 273 272 272 271 272 273 273 273 273 274 273 274 274 276 275 276 278 279 280 281 281 280 279
270 273 274 273 272 271 271 273 274 275 278 278 278 277 277 278 277 277 276 276 275 274 273 273 272 273 273 274 274 273 273 273 273 274 275 276 278 279 280 280 281 282 282 280
272 273 274 274 273 272 273 274 276 278 278 278 279 279 278 279 280 280 277 275 275 274 274 274 273 273 273 273 273 273 273 272 273 274 274 276 278 279 280 281 282 282 282 281
272 274 275 275 274 274 275 275 277 277 277 278 279 280 279 280 280 279 278 275 274 274 274 274 274 273 273 273 274 274 274 272 273 275 276 277 278 279 280 281 282 283 282 282
Height
5695 5698 5700 5702 5704 5706 5707 5709 5711 5713 5714 5715 5717 5719 5720 5721 5723 5724 5726 5728 5730 5732 5735 5737 5739 5740 5742 5744 5746 5747 5749 5750 5751 5752 5754 5755 5755 5756 5757 5758 5759 5760 5761 5762
5689 5691 5693 5694 5696 5697 5699 5701 5703 5704 5706 5707 5708 5710 5711 5712 5714 5715 5716 5718 5720 5722 5724 5726 5728 5730 5731 5733 5735 5736 5738 5739 5740 5741 5742 5743 5744 5746 5747 5748 5749 5750 5751 5752
5681 5684 5685 5687 5688 5690 5692 5694 5695 5696 5697 5698 5699 5702 5703 5704 5705 5706 5707 5708 5709 5711 5714 5716 5718 5719 5721 5723 5724 5725 5727 5728 5729 5730 5731 5732 5733 5734 5735 5737 5738 5739 5740 5741
5673 5675 5677 5679 5681 5682 5684 5686 5687 5688 5688 5689 5691 5691 5695 5695 5696 5696 5697 5698 5699 5701 5703 5705 5707 5709 5710 5712 5713 5714 5716 5717 5718 5718 5719 5720 5721 5723 5724 5725 5726 5727 5729 5730
5666 5668 5669 5671 5673 5674 5676 5677 5678 5679 5679 5681 5682 5682 5686 5686 5687 5688 5688 5689 5689 5691 5693 5695 5696 5698 5699 5701 5702 5703 5704 5705 5706 5706 5707 5708 5710 5711 5712 5713 5714 5716 5717 5719
5659 5660 5662 5664 5665 5666 5667 5669 5669 5670 5670 5672 5674 5674 5676 5677 5678 5679 5679 5680 5680 5681 5682 5684 5686 5687 5688 5690 5691 5692 5693 5693 5694 5695 5695 5696 5698 5699 5700 5701 5702 5704 5705 5707
5651 5652 5654 5655 5657 5658 5659 5661 5661 5660 5661 5663 5665 5665 5667 5669 5669 5670 5670 5671 5671 5672 5673 5674 5676 5677 5678 5679 5680 5681 5682 5682 5682 5683 5683 5684 5685 5686 5688 5689 5690 5692 5693 5694
5643 5645 5646 5647 5649 5650 5651 5653 5654 5654 5654 5655 5656 5656 5659 5660 5660 5661 5661 5662 5662 5663 5664 5665 5666 5667 5668 5669 5669 5670 5670 5670 5671 5671 5671 5672 5673 5675 5676 5677 5678 5679 5680 5682
5635 5637 5638 5639 5640 5642 5642 5643 5645 5645 5644 5645 5646 5649 5651 5651 5651 5652 5653 5653 5653 5654 5655 5656 5656 5657 5658 5658 5658 5658 5659 5659 5659 5660 5660 5660 5662 5663 5664 5665 5666 5667 5668 5669
5627 5629 5630 5630 5632 5633 5635 5635 5636 5636 5635 5636 5638 5640 5642 5642 5643 5643 5644 5644 5644 5645 5646 5646 5647 5647 5647 5647 5647 5647 5647 5648 5648 5648 5649 5649 5650 5651 5652 5652 5654 5655 5656 5657
5620 5621 5622 5623 5624 5625 5626 5627 5627 5627 5627 5629 5629 5634 5634 5634 5634 5634 5634 5635 5635 5636 5636 5636 5637 5637 5637 5636 5637 5637 5636 5637 5637 5637 5637 5638 5639 5639 5640 5640 5641 5643 5644 5645
5611 5612 5613 5615 5616 5616 5617 5618 5619 5620 5620 5620 5621 5626 5625 5625 5625 5625 5625 5625 5626 5626 5626 5626 5626 5626 5626 5626 5626 5626 5626 5626 5626 5626 5626 5626 5627 5627 5628 5629 5630 5630 5632 5633
5604 5605 5606 5607 5609 5609 5609 5610 5610 5611 5611 5611 5612 5618 5616 5616 5615 5616 5616 5616 5616 5616 5617 5617 5616 5616 5616 5616 5615 5615 5615 5615 5615 5615 5615 5615 5616 5616 5617 5617 5618 5619 5619 5620
5596 5597 5599 5600 5600 5600 5601 5602 5602 5602 5602 5603 5605 5607 5607 5606 5606 5606 5606 5606 5607 5607 5607 5607 5607 5606 5606 5605 5605 5605 5605 5605 5605 5604 5604 5604 5604 5605 5605 5606 5606 5607 5607 5607
5589 5590 5591 5592 5592 5592 5593 5593 5593 5594 5595 5595 5597 5597 5598 5597 5596 5596 5596 5597 5597 5597 5597 5597 5597 5597 5596 5596 5596 5595 5595 5594 5594 5594 5593 5593 5593 5593 5594 5594 5594 5594 5594 5594
5582 5583 5584 5584 5584 5584 5585 5585 5585 5586 5586 5587 5587 5588 5589 5587 5587 5587 5587 5587 5587 5587 5588 5587 5587 5587 5586 5586 5586 5585 5585 5584 5584 5583 5583 5582 5582 5582 5583 5583 5583 5582 5582 5582
5575 5576 5576 5577 5577 5576 5577 5579 5578 5579 5579 5579 5578 5580 5579 5578 5578 5578 5577 5577 5578 5578 5578 5578 5577 5577 5576 5576 5576 5575 5575 5574 5573 5573 5572 5572 5571 5571 5571 5571 5571 5571 5570 5570
5569 5569 5568 5569 5569 5569 5573 5571 5571 5570 5570 5570 5570 5570 5570 5570 5569 5568 5568 5568 5568 5569 5568 5568 5567 5567 5566 5566 5566 5565 5564 5563 5563 5562 5561 5561 5561 5560 5560 5560 5559 5558 5558 5557
5562 5562 5562 5562 5561 5562 5564 5564 5563 5562 5562 5562 5562 5561 5561 5560 5560 5560 5560 5559 5559 5559 5559 5558 5558 5557 5556 5556 5556 5555 5554 5553 5552 5551 5551 5550 5550 5549 5549 5548 5547 5547 5546 5545
5555 5555 5555 5554 5554 5554 5557 5556 5554 5555 5555 5555 5554 5553 5552 5552 5552 5553 5551 5550 5550 5550 5549 5549 5548 5547 5547 5546 5546 5545 5544 5543 5542 5541 5540 5540 5539 5539 5538 5537 5536 5535 5534 5533
5548 5548 5548 5547 5546 5547 5549 5548 5547 5549 5549 5547 5546 5545 5544 5543 5543 5543 5542 5541 5541 5540 5540 5539 5538 5538 5537 5536 5536 5535 5534 5533 5532 5531 5531 5530 5529 5528 5527 5526 5525 5524 5523 5522
5541 5540 5540 5540 5539 5542 5541 5540 5540 5540 5539 5538 5537 5537 5536 5535 5534 5533 5533 5532 5531 5531 5530 5530 5529 5528 5528 5527 5526 5526 5525 5524 5523 5523 5522 5521 5520 5519 5517 5516 5515 5514 5512 5511
5534 5534 5533 5534 5535 5534 5532 5532 5532 5531 5531 5530 5529 5529 5528 5527 5526 5525 5524 5523 5522 5522 5521 5520 5520 5519 5518 5518 5517 5516 5515 5515 5514 5513 5512 5511 5510 5509 5508 5507 5505 5504 5502 5501
5527 5526 5526 5526 5526 5526 5525 5524 5524 5523 5523 5522 5521 5520 5519 5518 5517 5516 5515 5514 5513 5513 5512 5511 5511 5510 5509 5508 5507 5507 5506 5505 5505 5504 5503 5502 5501 5500 5499 5497 5496 5494 5493 5491
5520 5519 5518 5518 5518 5518 5517 5517 5516 5515 5515 5514 5513 5512 5511 5510 5509 5507 5506 5505 5504 5503 5502 5502 5501 5501 5500 5499 5498 5497 5497 5496 5496 5495 5494 5493 5492 5491 5490 5488 5487 5485 5483 5481
5513 5512 5512 5512 5511 5510 5510 5509 5508 5507 5507 5506 5505 5504 5502 5501 5500 5498 5497 5496 5495 5494 5493 5493 5492 5492 5491 5490 5489 5488 5488 5487 5486 5486 5485 5484 5483 5482 5481 5479 5478 5476 5474 5473